EW1728 Weather Reports


time (UTC)temp
C
wind
direction
speed
KPH
gust
KPH
rain 1hr
cm
rain 24hr
cm
rain mn
cm
humidity
%
barometer
mb
20260508044527 11 122 0.0 0.0 0.00 3.17 0.00 99 1012.5
20260508043943 11 122 0.0 0.0 0.00 3.35 0.00 99 1012.6
20260508043434 11 122 0.0 0.0 0.00 3.45 0.00 99 1012.6
20260508042930 11 122 0.0 0.0 0.00 3.48 0.00 99 1012.5
20260508042429 11 122 0.0 0.0 0.00 3.48 0.00 99 1012.4
20260508042422 11 122 0.0 0.0 0.00 3.48 0.00 99 1012.4
20260508042026 12 122 0.0 0.0 0.00 3.48 0.00 99 1012.5
20260508040921 12 122 0.0 0.0 0.00 3.48 0.00 99 1012.6
20260508040419 12 122 0.0 0.0 0.00 3.51 0.00 99 1012.4
20260508035845 12 122 0.0 0.0 0.00 3.51 3.51 99 1012.4
20260508035824 12 122 0.0 0.0 0.00 3.51 3.51 99 1012.1
20260508034823 12 122 0.0 0.0 0.00 3.51 3.51 99 1012.0
20260508034758 12 122 0.0 1.6 0.00 3.51 3.51 99 1011.9
20260508033733 12 122 0.0 1.6 0.00 3.51 3.51 99 1011.7
20260508033235 12 122 0.0 1.6 0.00 3.51 3.51 99 1011.8
20260508033231 12 122 0.0 1.6 0.00 3.51 3.51 99 1011.7
20260508032225 12 103 0.0 1.6 0.00 3.51 3.51 99 1011.5
20260508032212 12 66 0.0 0.0 0.00 3.51 3.51 99 1011.8
20260508031815 12 83 0.0 1.6 0.00 3.51 3.51 99 1011.6
20260508030710 12 66 0.0 0.0 0.00 3.51 3.51 99 1011.7
20260508030208 12 67 0.0 0.0 0.00 3.51 3.51 99 1011.5
20260508025701 12 67 0.0 0.0 0.00 3.51 3.51 99 1011.4
20260508025200 12 67 0.0 0.0 0.00 3.51 3.51 99 1011.2
20260508024632 12 66 0.0 0.0 0.00 3.51 3.51 99 1011.1
20260508024133 12 67 0.0 0.0 0.00 3.51 3.51 99 1011.3
20260508023631 12 67 0.0 0.0 0.00 3.51 3.51 99 1011.2
20260508023128 12 67 0.0 0.0 0.00 3.51 3.51 99 1011.1
20260508022617 12 66 0.0 1.6 0.00 3.51 3.51 99 1011.3
20260508022115 12 81 0.0 1.6 0.00 3.51 3.51 99 1011.1
20260508021531 12 81 0.0 1.6 0.00 3.51 3.51 99 1010.9
20260508021031 12 82 0.0 1.6 0.00 3.51 3.51 99 1010.8
20260508020535 12 82 0.0 0.0 0.00 3.51 3.51 99 1011.1
20260508020531 12 82 0.0 1.6 0.00 3.51 3.51 99 1011.1
20260508015531 12 82 0.0 0.0 0.00 3.51 3.51 99 1011.0
20260508015031 12 82 0.0 0.0 0.00 3.51 3.51 99 1010.9
20260508014533 12 82 0.0 1.6 0.05 3.51 3.51 99 1011.0
20260508014529 12 82 0.0 0.0 0.00 3.51 3.51 99 1010.9
20260508013525 12 82 0.0 1.6 0.13 3.51 3.51 98 1010.7
20260508013003 12 82 0.0 1.6 0.25 3.51 3.51 98 1010.2
20260508012446 12 82 0.0 1.6 0.38 3.51 3.51 98 1010.2
20260508011927 12 117 0.0 0.0 0.41 3.51 3.51 98 1010.3
20260508011431 12 117 0.0 1.6 0.43 3.51 3.51 98 1010.2
20260508011426 12 117 0.0 1.6 0.43 3.51 3.51 98 1010.3
20260508010427 12 118 0.0 1.6 0.43 3.51 3.51 98 1010.3
20260508005924 12 117 0.0 1.6 0.43 3.51 3.51 98 1010.2
20260508005421 12 118 0.0 1.6 0.43 3.51 3.51 98 1010.1
20260508004921 12 118 0.0 1.6 0.43 3.51 3.51 98 1010.5
20260508004419 12 118 0.0 1.6 0.41 3.48 3.48 98 1010.1
20260508003919 12 118 0.0 1.6 0.38 3.45 3.45 97 1010.3
20260508003419 12 120 0.0 3.2 0.28 3.35 3.38 97 1010.7
20260508002902 12 120 0.0 3.2 0.18 3.25 3.25 96 1010.6
20260508002401 12 46 0.0 3.2 0.05 3.12 3.15 96 1010.1
20260508001859 12 309 0.0 3.2 0.03 3.10 3.10 95 1009.7
20260508001342 12 308 0.0 3.2 0.00 3.07 3.07 95 1009.5
20260508000840 12 322 0.0 3.2 0.00 3.07 3.07 95 1009.4
20260508000342 12 352 0.0 8.0 0.00 3.07 3.07 95 1009.1
20260507235835 12 78 1.6 8.0 0.00 3.07 3.07 95 1008.9
20260507235328 12 72 1.6 4.8 0.00 3.07 3.07 95 1009.0
20260507234831 12 59 3.2 6.4 0.00 3.07 3.07 94 1009.1
20260507234827 12 47 3.2 6.4 0.00 3.07 3.07 95 1009.0
20260507233825 12 34 1.6 6.4 0.00 3.07 3.07 94 1009.2
20260507233325 12 38 3.2 12.9 0.00 3.07 3.07 95 1009.3
20260507232812 12 85 1.6 12.9 0.00 3.07 3.07 94 1009.2
20260507232313 12 63 0.0 4.8 0.00 3.07 3.07 95 1009.2
20260507231806 12 49 1.6 4.8 0.00 3.07 3.07 95 1009.3
20260507231306 12 63 1.6 4.8 0.00 3.07 3.07 94 1009.1
20260507230805 12 41 1.6 6.4 0.00 3.07 3.07 95 1009.1
20260507230259 12 83 1.6 6.4 0.00 3.07 3.07 95 1008.9
20260507230254 12 77 1.6 6.4 0.00 3.07 3.07 95 1008.9
20260507225252 12 37 3.2 11.3 0.00 3.07 3.07 94 1008.9
20260507224750 12 41 4.8 11.3 0.00 3.07 3.07 94 1008.7
20260507224253 12 72 3.2 9.7 0.00 3.07 3.07 95 1008.7
20260507224249 12 62 3.2 9.7 0.00 3.07 3.07 94 1008.9
20260507223248 12 67 4.8 12.9 0.00 3.07 3.07 94 1008.7
20260507222749 12 41 3.2 12.9 0.00 3.07 3.07 95 1008.6
20260507222246 12 27 3.2 12.9 0.00 3.07 3.07 95 1008.6
20260507221744 12 62 3.2 11.3 0.00 3.07 3.07 95 1008.6
20260507221249 12 41 4.8 14.5 0.00 3.07 3.07 95 1008.6
20260507221245 12 60 3.2 14.5 0.00 3.07 3.07 95 1008.6
20260507220243 12 94 3.2 11.3 0.00 3.07 3.07 95 1008.8
20260507215742 12 28 3.2 11.3 0.00 3.07 3.07 95 1008.7
20260507215242 12 12 4.8 12.9 0.00 3.07 3.07 95 1008.6
20260507214743 12 58 4.8 14.5 0.00 3.07 3.07 95 1008.6
20260507214246 12 77 6.4 14.5 0.00 3.07 3.07 96 1008.4
20260507214242 12 70 6.4 14.5 0.00 3.07 3.07 96 1008.4
20260507213243 12 51 6.4 16.1 0.00 3.07 3.07 96 1008.4
20260507212746 12 65 4.8 16.1 0.03 3.07 3.07 96 1008.2
20260507212742 12 28 6.4 16.1 0.03 3.07 3.07 96 1008.3
20260507212346 12 44 6.4 16.1 0.03 3.07 3.07 97 1008.4
20260507211241 12 53 3.2 12.9 0.10 3.07 3.07 97 1008.2
20260507210740 12 49 4.8 16.1 0.10 3.07 3.07 97 1008.2
20260507210234 12 59 6.4 16.1 0.10 3.07 3.07 97 1008.1
20260507205735 12 34 6.4 16.1 0.10 3.07 3.07 97 1007.8
20260507205233 13 59 6.4 16.1 0.10 3.07 3.07 97 1007.9
20260507204732 13 14 6.4 14.5 0.10 3.07 3.07 97 1007.7
20260507204233 13 80 6.4 16.1 0.10 3.07 3.07 98 1007.7
20260507203730 13 64 6.4 16.1 0.10 3.07 3.07 97 1007.8
20260507203230 13 59 3.2 14.5 0.13 3.07 3.07 97 1007.7
20260507202729 13 333 3.2 12.9 0.13 3.05 3.05 98 1007.8
20260507202222 13 63 4.8 12.9 0.15 3.05 3.05 97 1007.7
20260507202218 13 60 3.2 14.5 0.15 3.05 3.05 97 1007.6
20260507201218 13 39 3.2 14.5 0.08 2.97 3.00 97 1007.5
20260507200722 14 72 4.8 12.9 0.08 2.97 2.97 98 1007.5
20260507200718 13 35 3.2 9.7 0.08 2.97 2.97 98 1007.5
20260507195716 14 41 4.8 12.9 0.08 2.97 2.97 98 1007.3
20260507195217 14 76 4.8 11.3 0.08 2.97 2.97 97 1007.5
20260507194714 14 65 4.8 12.9 0.08 2.97 2.97 97 1007.5
20260507194218 15 89 6.4 12.9 0.05 3.02 2.95 97 1007.4
20260507194214 14 86 4.8 12.9 0.08 3.00 2.97 97 1007.5
20260507193818 15 72 4.8 12.9 0.08 3.02 2.97 97 1007.4
20260507192713 15 48 4.8 16.1 0.03 3.00 2.92 97 1007.5
20260507192212 15 63 4.8 16.1 0.00 2.97 2.90 97 1007.5
20260507191710 15 41 4.8 19.3 0.00 2.97 2.90 97 1007.5
20260507191215 15 70 4.8 19.3 0.00 2.97 2.90 97 1007.1
20260507191211 15 32 6.4 19.3 0.00 2.97 2.90 97 1007.5
20260507190814 15 72 4.8 19.3 0.00 2.97 2.90 97 1006.7
20260507185713 16 38 3.2 9.7 0.00 2.97 2.90 96 1006.8
20260507185709 15 105 4.8 14.5 0.00 2.97 2.90 96 1006.4
20260507184706 16 56 3.2 11.3 0.00 2.97 2.90 96 1007.1
20260507184211 16 53 3.2 12.9 0.00 2.97 2.90 96 1007.6
20260507184206 16 33 3.2 12.9 0.00 2.97 2.90 96 1007.2
20260507183206 16 36 4.8 16.1 0.00 2.97 2.90 96 1007.4
20260507182704 17 69 4.8 16.1 0.00 2.97 2.90 94 1006.7
20260507182204 17 80 4.8 19.3 0.00 2.97 2.90 94 1006.8
20260507181701 18 44 6.4 19.3 0.00 2.97 2.90 93 1007.0
20260507181156 20 15 3.2 16.1 0.00 2.97 2.90 91 1006.7
20260507180647 21 78 0.0 6.4 0.00 2.97 2.90 97 1007.1
20260507180145 21 6 0.0 1.6 0.03 2.97 2.90 98 1007.1
20260507180141 21 6 0.0 1.6 0.03 2.97 2.90 98 1007.1
20260507175128 21 6 0.0 1.6 0.03 2.97 2.90 98 1007.2
20260507174556 21 6 0.0 1.6 0.03 2.97 2.90 99 1007.2
20260507174041 21 6 0.0 0.0 0.03 2.97 2.90 98 1007.0
20260507173528 21 5 0.0 1.6 0.03 2.97 2.90 99 1006.9
20260507173524 21 6 0.0 1.6 0.03 2.97 2.90 98 1006.8
20260507173128 21 359 0.0 1.6 0.03 2.97 2.90 99 1006.8
20260507172628 21 125 0.0 1.6 0.03 2.97 2.90 100 1006.5
20260507171512 21 125 0.0 1.6 0.03 2.97 2.90 100 1006.6
20260507171011 21 113 0.0 1.6 0.03 2.97 2.90 100 1006.8
20260507170928 20 113 0.0 1.6 0.00 2.95 2.87 100 1006.8
20260507165927 20 113 0.0 1.6 0.00 2.95 2.87 100 1007.0
20260507165354 20 113 0.0 1.6 0.00 2.95 2.87 100 1007.3
20260507165350 20 113 0.0 3.2 0.00 2.95 2.87 100 1007.4
20260507164348 20 132 0.0 3.2 0.00 2.95 2.87 100 1007.7
20260507163848 20 91 0.0 1.6 0.00 2.95 2.87 100 1007.8
20260507163330 20 91 0.0 1.6 0.00 2.95 2.87 100 1007.7
20260507162824 20 91 0.0 3.2 0.03 2.95 2.87 100 1008.0
20260507162321 20 91 0.0 3.2 0.05 2.95 2.87 100 1008.1
20260507161818 20 65 0.0 1.6 0.08 2.95 2.87 100 1008.2
20260507161257 20 65 0.0 6.4 0.10 2.95 2.87 100 1008.3
20260507160758 20 49 0.0 6.4 0.13 2.95 2.87 100 1008.3
20260507160258 20 108 0.0 1.6 0.13 2.95 2.87 100 1008.4
20260507155735 20 104 0.0 1.6 0.18 2.95 2.87 100 1008.2
20260507155233 20 104 0.0 0.0 0.25 2.95 2.87 100 1007.9
20260507154728 20 104 0.0 0.0 0.43 2.95 2.87 100 1007.9
20260507154230 20 104 0.0 0.0 0.53 2.95 2.87 100 1007.8
20260507154223 20 104 0.0 0.0 0.64 2.95 2.87 100 1008.0
20260507153200 19 104 0.0 0.0 0.74 2.95 2.87 100 1008.1
20260507152643 19 104 0.0 0.0 0.81 2.92 2.84 100 1008.0
20260507152134 19 104 0.0 0.0 0.91 2.90 2.82 100 1008.0
20260507151632 19 104 0.0 3.2 0.94 2.87 2.79 100 1008.2
20260507151110 19 97 0.0 3.2 0.94 2.84 2.77 100 1008.3
20260507150608 19 276 0.0 3.2 0.97 2.82 2.74 100 1008.4
20260507150104 19 276 1.6 3.2 1.02 2.79 2.72 100 1008.5
20260507145602 19 283 1.6 17.7 1.02 2.77 2.69 100 1008.5
20260507145045 19 276 1.6 17.7 0.89 2.64 2.59 100 1008.3
20260507144540 19 163 0.0 6.4 0.71 2.46 2.41 100 1008.5
20260507144034 19 162 0.0 0.0 0.58 2.34 2.29 100 1008.7
20260507143530 19 124 0.0 0.0 0.51 2.26 2.21 100 1008.6
20260507143028 20 66 0.0 0.0 0.33 2.08 2.03 100 1008.8
20260507143024 20 66 0.0 0.0 0.43 2.18 2.13 100 1008.7
20260507142025 20 66 0.0 0.0 0.20 1.96 1.91 100 1008.9
20260507141520 20 66 0.0 0.0 0.18 1.93 1.85 100 1008.8
20260507141018 20 66 0.0 0.0 0.13 1.88 1.83 100 1008.7
20260507140516 20 109 0.0 0.0 0.08 1.83 1.75 100 1009.0
20260507140012 20 110 0.0 0.0 0.03 1.78 1.70 100 1008.9
20260507135512 20 109 0.0 0.0 0.00 1.75 1.68 100 1008.8
20260507135013 20 110 0.0 0.0 0.00 1.75 1.68 100 1008.8
20260507134506 20 109 0.0 0.0 0.00 1.75 1.68 100 1008.8
20260507134004 20 110 0.0 0.0 0.00 1.75 1.68 100 1008.7
20260507133506 20 110 0.0 0.0 0.00 1.75 1.68 100 1008.8
20260507133502 20 110 0.0 0.0 0.00 1.75 1.68 100 1008.8
20260507132433 20 109 0.0 0.0 0.00 1.75 1.68 100 1008.9
20260507131935 20 109 0.0 0.0 0.00 1.75 1.68 100 1008.8
20260507131931 20 124 0.0 0.0 0.00 1.75 1.68 100 1008.8
20260507130929 19 124 0.0 0.0 0.00 1.75 1.68 100 1008.7
20260507130402 19 124 0.0 0.0 0.00 1.75 1.68 100 1008.6
20260507125902 19 124 0.0 0.0 0.00 1.75 1.68 100 1008.6
20260507125356 19 124 0.0 0.0 0.00 1.75 1.68 100 1008.6
20260507124849 19 124 0.0 0.0 0.00 1.75 1.68 100 1008.7
20260507124341 19 124 0.0 0.0 0.00 1.75 1.68 100 1008.7
20260507123836 19 148 0.0 0.0 0.00 1.75 1.68 100 1008.7
20260507123334 19 149 0.0 0.0 0.00 1.75 1.68 100 1008.8
20260507123330 19 148 0.0 0.0 0.00 1.75 1.68 100 1008.9
20260507122327 19 149 0.0 0.0 0.00 1.75 1.68 100 1009.0
20260507121824 19 148 0.0 0.0 0.00 1.75 1.68 100 1008.9
20260507121324 19 148 0.0 0.0 0.00 1.75 1.68 100 1009.0
20260507120817 18 149 0.0 0.0 0.00 1.75 1.68 100 1009.1
20260507120318 18 148 0.0 0.0 0.00 1.75 1.68 100 1009.0
20260507115811 18 148 0.0 0.0 0.00 1.75 1.68 100 1009.1
20260507115307 18 149 0.0 0.0 0.00 1.75 1.68 100 1009.2
20260507114800 18 148 0.0 0.0 0.03 1.75 1.68 100 1009.3
20260507114257 18 148 0.0 0.0 0.03 1.75 1.68 100 1009.4
20260507113751 18 148 0.0 0.0 0.03 1.75 1.68 100 1009.3
20260507113226 18 149 0.0 0.0 0.05 1.75 1.68 100 1009.3
20260507112710 18 148 0.0 0.0 0.05 1.75 1.68 100 1009.3
20260507112201 18 148 0.0 0.0 0.05 1.75 1.68 100 1009.3
20260507111659 18 149 0.0 0.0 0.05 1.75 1.68 100 1009.4
20260507111631 18 148 0.0 0.0 0.08 1.75 1.68 100 1009.5
20260507110630 18 149 0.0 0.0 0.08 1.75 1.68 100 1009.4
20260507110128 18 149 0.0 0.0 0.08 1.75 1.68 100 1009.2
20260507105553 18 148 0.0 0.0 0.08 1.75 1.68 100 1009.2
20260507105030 18 149 0.0 0.0 0.08 1.73 1.68 100 1009.2
20260507104530 18 149 0.0 0.0 0.08 1.73 1.65 100 1009.2
20260507104029 18 149 0.0 0.0 0.08 1.73 1.65 100 1009.1
20260507103524 18 148 0.0 0.0 0.05 1.70 1.63 100 1009.1
20260507103023 18 149 0.0 0.0 0.05 1.70 1.63 100 1008.9
20260507102523 18 149 0.0 0.0 0.05 1.70 1.63 100 1008.9
20260507102018 18 149 0.0 0.0 0.05 1.70 1.63 100 1009.2
20260507101501 18 149 0.0 0.0 0.05 1.70 1.63 100 1009.3
20260507100959 18 149 0.0 0.0 0.03 1.68 1.60 100 1009.2
20260507100430 18 149 0.0 0.0 0.03 1.68 1.60 100 1009.0
20260507095929 18 149 0.0 0.0 0.03 1.68 1.60 100 1009.0
20260507095421 18 149 0.0 0.0 0.03 1.68 1.60 100 1008.9
20260507094920 18 149 0.0 0.0 0.03 1.65 1.57 100 1009.0
20260507094417 18 149 0.0 0.0 0.08 1.65 1.57 100 1009.0
20260507093853 18 149 0.0 0.0 0.13 1.65 1.57 100 1008.9
20260507093355 18 149 0.0 0.0 0.20 1.65 1.57 100 1008.7
20260507093351 18 149 0.0 0.0 0.23 1.65 1.57 100 1008.9
20260507092345 18 149 0.0 0.0 0.25 1.65 1.57 100 1008.9
20260507092341 18 148 0.0 0.0 0.25 1.65 1.57 100 1009.0
20260507091331 18 148 0.0 0.0 0.28 1.65 1.57 100 1009.0
20260507090832 18 148 0.0 0.0 0.30 1.65 1.57 100 1009.0
20260507090329 18 149 0.0 0.0 0.30 1.65 1.57 100 1008.9
20260507085830 18 149 0.0 0.0 0.33 1.65 1.57 100 1009.2
20260507085330 18 149 0.0 1.6 0.36 1.63 1.55 100 1009.4
20260507085326 18 149 0.0 0.0 0.36 1.65 1.57 100 1009.2
20260507084310 18 149 0.0 1.6 0.30 1.55 1.50 100 1009.1
20260507083809 18 148 0.0 1.6 0.25 1.50 1.42 100 1009.4
20260507083303 18 214 0.0 1.6 0.20 1.42 1.37 100 1009.7
20260507082759 18 214 0.0 1.6 0.18 1.40 1.32 100 1009.8
20260507082232 18 214 0.0 1.6 0.20 1.40 1.32 100 1009.9
20260507081732 18 214 0.0 1.6 0.23 1.40 1.32 100 1009.7
20260507081227 18 214 0.0 1.6 0.20 1.37 1.30 100 1009.6
20260507080704 18 143 0.0 1.6 0.18 1.35 1.27 99 1009.5
20260507080202 18 132 0.0 1.6 0.15 1.32 1.24 99 1008.5
20260507075635 18 51 0.0 1.6 0.13 1.30 1.22 99 1009.5
20260507075137 18 51 0.0 0.0 0.10 1.27 1.19 99 1009.8
20260507075133 18 51 0.0 0.0 0.08 1.24 1.19 99 1009.9
20260507074051 18 51 0.0 0.0 0.08 1.24 1.17 99 1009.9
20260507073551 18 51 0.0 0.0 0.05 1.22 1.14 99 1010.1
20260507073026 18 51 0.0 0.0 0.05 1.22 1.14 99 1009.8
20260507072525 18 51 0.0 0.0 0.03 1.19 1.12 99 1009.7
20260507072025 18 51 0.0 1.6 0.03 1.19 1.12 99 1009.9
20260507071525 18 51 0.0 1.6 0.00 1.17 1.09 99 1009.9
20260507071026 18 48 0.0 1.6 0.00 1.17 1.09 99 1009.9
20260507070525 18 48 0.0 0.0 0.00 1.17 1.09 99 1010.2
20260507070023 18 48 0.0 0.0 0.00 1.17 1.09 99 1010.4
20260507065501 18 48 0.0 0.0 0.00 1.17 1.09 99 1010.2
20260507065456 18 49 0.0 0.0 0.00 1.17 1.09 99 1010.1
20260507064455 18 48 0.0 0.0 0.00 1.17 1.09 99 1010.2
20260507063951 18 49 0.0 0.0 0.00 1.17 1.09 99 1010.3
20260507063451 18 48 0.0 0.0 0.00 1.17 1.09 99 1010.5
20260507062926 18 48 0.0 0.0 0.00 1.17 1.09 99 1010.6
20260507062407 18 49 0.0 0.0 0.00 1.17 1.09 99 1010.7
20260507061903 18 48 0.0 0.0 0.03 1.17 1.09 99 1011.0
20260507061855 18 48 0.0 1.6 0.18 1.17 1.09 99 1011.1
20260507060828 18 48 0.0 1.6 0.41 1.17 1.09 99 1011.1
20260507060329 18 48 0.0 0.0 0.46 1.17 1.09 98 1010.6
20260507055831 18 48 0.0 0.0 0.56 1.17 1.09 98 1010.6
20260507055827 18 48 0.0 0.0 0.48 1.17 1.09 98 1010.5
20260507054825 18 48 0.0 1.6 0.71 1.17 1.09 98 1010.9
20260507054325 18 48 0.0 1.6 0.84 1.17 1.09 98 1010.5
20260507053826 19 48 0.0 1.6 0.97 1.17 1.09 98 1010.4
20260507053325 19 48 0.0 1.6 1.07 1.17 1.09 98 1010.1
20260507052821 19 47 0.0 1.6 1.07 1.17 1.09 98 1010.4
20260507052321 19 48 1.6 6.4 1.07 1.17 1.09 98 1010.4
20260507051817 19 116 1.6 6.4 1.04 1.14 1.07 97 1010.3
20260507051309 19 104 0.0 4.8 0.84 0.94 0.91 97 1012.1
20260507050810 19 111 0.0 1.6 0.69 0.76 0.76 97 1012.5
20260507050307 19 111 0.0 1.6 0.64 0.71 0.64 97 1012.3
20260507045803 19 111 0.0 1.6 0.61 0.69 0.61 96 1012.1
20260507045302 19 95 0.0 1.6 0.53 0.61 0.56 96 1012.5